Time,TemperatureF,DewpointF,PressureIn,WindDirection,WindDirectionDegrees,WindSpeedMPH,WindSpeedGustMPH,Humidity,HourlyPrecipIn,Conditions,Clouds,dailyrainin,SoftwareType,DateUTC
2013-03-02 00:01:00,47.3,28.6,30.26,NNW,348,1.0,1.2,48,0.00,CLR,,0.00,WeatherDisplay:10.37,2013-03-02 06:01:00,
2013-03-02 00:06:00,47.6,29.4,30.26,NNW,348,0.0,0.0,49,0.00,CLR,,0.00,WeatherDisplay:10.37,2013-03-02 06:06:00,
2013-03-02 00:11:00,47.6,28.3,30.26,NNW,348,0.0,0.0,47,0.00,CLR,,0.00,WeatherDisplay:10.37,2013-03-02 06:11:00,
2013-03-02 00:16:00,47.5,28.3,30.26,NNW,348,0.0,0.0,47,0.00,CLR,,0.00,WeatherDisplay:10.37,2013-03-02 06:16:00,
2013-03-02 00:21:00,47.4,27.6,30.26,NNW,348,0.0,0.0,46,0.00,CLR,,0.00,WeatherDisplay:10.37,2013-03-02 06:21:00,
2013-03-02 00:26:00,47.3,28.1,30.26,NNW,348,0.0,0.0,47,0.00,CLR,,0.00,WeatherDisplay:10.37,2013-03-02 06:26:00,
2013-03-02 00:31:00,47.1,27.9,30.26,NNW,348,0.0,0.0,47,0.00,CLR,,0.00,WeatherDisplay:10.37,2013-03-02 06:31:00,
2013-03-02 00:36:00,46.9,27.2,30.26,NNW,348,0.0,0.0,46,0.00,CLR,,0.00,WeatherDisplay:10.37,2013-03-02 06:36:00,
2013-03-02 00:41:00,46.7,27.0,30.26,NNW,348,0.0,0.0,46,0.00,CLR,,0.00,WeatherDisplay:10.37,2013-03-02 06:41:00,
2013-03-02 00:46:00,46.5,26.8,30.26,NNW,348,0.0,0.0,46,0.00,CLR,,0.00,WeatherDisplay:10.37,2013-03-02 06:46:00,
2013-03-02 00:51:00,46.2,26.5,30.27,NNW,348,0.0,0.0,46,0.00,CLR,,0.00,WeatherDisplay:10.37,2013-03-02 06:51:00,
2013-03-02 00:56:00,45.9,26.8,30.27,NNW,348,0.0,0.0,47,0.00,CLR,,0.00,WeatherDisplay:10.37,2013-03-02 06:56:00,
2013-03-02 01:01:00,45.6,26.5,30.27,NNW,348,0.0,0.0,47,0.00,CLR,,0.00,WeatherDisplay:10.37,2013-03-02 07:01:00,
2013-03-02 01:06:00,45.3,26.7,30.27,NNW,348,0.0,0.0,48,0.00,CLR,,0.00,WeatherDisplay:10.37,2013-03-02 07:06:00,
2013-03-02 01:11:00,45.0,27.0,30.27,NNW,348,0.0,0.0,49,0.00,CLR,,0.00,WeatherDisplay:10.37,2013-03-02 07:11:00,
2013-03-02 01:16:00,44.9,27.4,30.27,NNW,348,0.0,1.2,50,0.00,CLR,,0.00,WeatherDisplay:10.37,2013-03-02 07:16:00,
2013-03-02 01:21:00,44.7,27.2,30.27,NNW,346,0.1,1.2,50,0.00,CLR,,0.00,WeatherDisplay:10.37,2013-03-02 07:21:00,
2013-03-02 01:26:00,44.7,27.2,30.28,NNW,346,0.5,1.2,50,0.00,CLR,,0.00,WeatherDisplay:10.37,2013-03-02 07:26:00,
2013-03-02 01:31:00,44.7,27.2,30.28,NNW,346,0.0,1.2,50,0.00,CLR,,0.00,WeatherDisplay:10.37,2013-03-02 07:31:00,
2013-03-02 01:36:00,44.7,27.2,30.28,NNW,346,0.0,1.2,50,0.00,CLR,,0.00,WeatherDisplay:10.37,2013-03-02 07:36:00,
2013-03-02 01:41:00,44.7,27.2,30.28,NNW,331,0.0,1.2,50,0.00,CLR,,0.00,WeatherDisplay:10.37,2013-03-02 07:41:00,
2013-03-02 01:46:00,44.6,27.1,30.28,NNW,331,0.0,1.2,50,0.00,CLR,,0.00,WeatherDisplay:10.37,2013-03-02 07:46:00,
2013-03-02 01:51:00,44.6,27.1,30.28,NNW,331,0.0,0.0,50,0.00,CLR,,0.00,WeatherDisplay:10.37,2013-03-02 07:51:00,
2013-03-02 01:56:00,44.6,27.1,30.28,NNW,331,0.4,1.2,50,0.00,CLR,,0.00,WeatherDisplay:10.37,2013-03-02 07:56:00,
2013-03-02 02:01:00,44.5,27.5,30.28,NNW,331,0.1,0.0,51,0.00,CLR,,0.00,WeatherDisplay:10.37,2013-03-02 08:01:00,
2013-03-02 02:06:00,44.4,27.4,30.28,NNW,331,0.0,3.5,51,0.00,CLR,,0.00,WeatherDisplay:10.37,2013-03-02 08:06:00,
2013-03-02 02:11:00,44.4,27.4,30.28,NNW,331,0.2,1.0,51,0.00,CLR,,0.00,WeatherDisplay:10.37,2013-03-02 08:11:00,
2013-03-02 02:16:00,44.4,27.4,30.28,NNW,331,0.0,0.0,51,0.00,CLR,,0.00,WeatherDisplay:10.37,2013-03-02 08:16:00,
2013-03-02 02:21:00,44.3,27.3,30.28,NNW,331,0.0,0.0,51,0.00,CLR,,0.00,WeatherDisplay:10.37,2013-03-02 08:21:00,
2013-03-02 02:26:00,44.2,27.7,30.28,NNW,331,0.1,2.3,52,0.00,CLR,,0.00,WeatherDisplay:10.37,2013-03-02 08:26:00,
2013-03-02 02:31:00,44.2,27.7,30.28,NNW,331,0.0,0.0,52,0.00,CLR,,0.00,WeatherDisplay:10.37,2013-03-02 08:31:00,
2013-03-02 02:36:00,44.1,27.6,30.28,NNW,331,0.0,1.2,52,0.00,CLR,,0.00,WeatherDisplay:10.37,2013-03-02 08:36:00,
2013-03-02 02:41:00,44.0,27.5,30.28,NNW,331,0.2,2.3,52,0.00,CLR,,0.00,WeatherDisplay:10.37,2013-03-02 08:41:00,
2013-03-02 02:46:00,43.8,27.3,30.28,NNW,331,0.1,1.0,52,0.00,CLR,,0.00,WeatherDisplay:10.37,2013-03-02 08:46:00,
2013-03-02 02:51:00,43.7,27.7,30.28,NNW,331,0.0,0.0,53,0.00,CLR,,0.00,WeatherDisplay:10.37,2013-03-02 08:51:00,
2013-03-02 02:56:00,43.5,27.5,30.28,NNW,331,0.3,1.2,53,0.00,CLR,,0.00,WeatherDisplay:10.37,2013-03-02 08:56:00,
2013-03-02 03:01:00,43.4,27.4,30.28,NNW,331,0.0,1.2,53,0.00,CLR,,0.00,WeatherDisplay:10.37,2013-03-02 09:01:00,
2013-03-02 03:06:00,43.3,27.8,30.28,NNW,331,0.0,1.2,54,0.00,CLR,,0.00,WeatherDisplay:10.37,2013-03-02 09:06:00,
2013-03-02 03:11:00,43.1,27.6,30.28,NNW,331,0.0,0.0,54,0.00,CLR,,0.00,WeatherDisplay:10.37,2013-03-02 09:11:00,
2013-03-02 03:16:00,42.9,27.4,30.28,NNW,331,0.1,1.2,54,0.00,CLR,,0.00,WeatherDisplay:10.37,2013-03-02 09:16:00,
2013-03-02 03:21:00,42.8,27.3,30.28,NNW,331,0.0,0.0,54,0.00,CLR,,0.00,WeatherDisplay:10.37,2013-03-02 09:21:00,
2013-03-02 03:26:00,42.6,27.5,30.28,NNW,331,0.0,2.3,55,0.00,CLR,,0.00,WeatherDisplay:10.37,2013-03-02 09:26:00,
2013-03-02 03:31:00,42.4,27.4,30.28,NNW,331,0.0,0.0,55,0.00,CLR,,0.00,WeatherDisplay:10.37,2013-03-02 09:31:00,
2013-03-02 03:36:00,42.2,27.6,30.28,NNW,331,0.0,1.2,56,0.00,CLR,,0.00,WeatherDisplay:10.37,2013-03-02 09:36:00,
2013-03-02 03:41:00,41.9,27.3,30.28,NNW,331,0.0,0.0,56,0.00,CLR,,0.00,WeatherDisplay:10.37,2013-03-02 09:41:00,
2013-03-02 03:46:00,41.7,27.6,30.28,NNW,331,0.5,2.3,57,0.00,CLR,,0.00,WeatherDisplay:10.37,2013-03-02 09:46:00,
2013-03-02 03:51:00,41.6,27.5,30.28,NNW,331,0.1,1.2,57,0.00,CLR,,0.00,WeatherDisplay:10.37,2013-03-02 09:51:00,
2013-03-02 03:56:00,41.4,27.7,30.28,NNW,331,0.1,0.0,58,0.00,CLR,,0.00,WeatherDisplay:10.37,2013-03-02 09:56:00,
2013-03-02 04:01:00,41.3,27.6,30.28,NNW,331,0.0,0.0,58,0.00,CLR,,0.00,WeatherDisplay:10.37,2013-03-02 10:01:00,
2013-03-02 04:06:00,41.2,27.5,30.28,NNW,331,0.0,0.0,58,0.00,CLR,,0.00,WeatherDisplay:10.37,2013-03-02 10:06:00,
2013-03-02 04:11:00,41.0,29.0,30.28,NNW,331,0.0,1.2,62,0.00,CLR,,0.00,WeatherDisplay:10.37,2013-03-02 10:11:00,
2013-03-02 04:16:00,40.8,27.6,30.29,NNW,331,0.0,1.0,59,0.00,CLR,,0.00,WeatherDisplay:10.37,2013-03-02 10:16:00,
2013-03-02 04:21:00,40.6,27.4,30.29,NNW,331,0.0,0.0,59,0.00,CLR,,0.00,WeatherDisplay:10.37,2013-03-02 10:21:00,
2013-03-02 04:26:00,40.4,27.2,30.29,NNW,331,0.0,1.2,59,0.00,CLR,,0.00,WeatherDisplay:10.37,2013-03-02 10:26:00,
2013-03-02 04:31:00,40.2,27.4,30.29,NNW,331,0.3,0.0,60,0.00,CLR,,0.00,WeatherDisplay:10.37,2013-03-02 10:31:00,
2013-03-02 04:37:00,40.0,27.6,30.29,NNW,331,0.2,1.2,61,0.00,CLR,,0.00,WeatherDisplay:10.37,2013-03-02 10:37:00,
2013-03-02 04:42:00,39.8,27.4,30.30,NNW,331,0.1,1.2,61,0.00,CLR,,0.00,WeatherDisplay:10.37,2013-03-02 10:42:00,
2013-03-02 04:47:00,39.8,27.4,30.30,NNW,331,0.0,0.0,61,0.00,CLR,,0.00,WeatherDisplay:10.37,2013-03-02 10:47:00,
2013-03-02 04:52:00,39.7,27.3,30.29,NNW,331,0.0,0.0,61,0.00,CLR,,0.00,WeatherDisplay:10.37,2013-03-02 10:52:00,
2013-03-02 04:57:00,39.5,27.2,30.29,NNW,331,0.0,0.0,61,0.00,CLR,,0.00,WeatherDisplay:10.37,2013-03-02 10:57:00,
2013-03-02 05:02:00,39.3,27.0,30.29,NNW,331,0.0,0.0,61,0.00,CLR,,0.00,WeatherDisplay:10.37,2013-03-02 11:02:00,
2013-03-02 05:07:00,39.2,26.9,30.29,NNW,331,0.0,0.0,61,0.00,CLR,,0.00,WeatherDisplay:10.37,2013-03-02 11:07:00,
2013-03-02 05:12:00,39.1,26.8,30.29,NNW,331,0.0,0.0,61,0.00,CLR,,0.00,WeatherDisplay:10.37,2013-03-02 11:12:00,
2013-03-02 05:17:00,38.9,27.0,30.29,NNW,331,0.0,0.0,62,0.00,CLR,,0.00,WeatherDisplay:10.37,2013-03-02 11:17:00,
2013-03-02 05:22:00,38.8,26.9,30.30,NNW,331,0.0,0.0,62,0.00,CLR,,0.00,WeatherDisplay:10.37,2013-03-02 11:22:00,
2013-03-02 05:27:00,38.7,26.8,30.30,NNW,331,0.0,0.0,62,0.00,CLR,,0.00,WeatherDisplay:10.37,2013-03-02 11:27:00,
2013-03-02 05:32:00,38.5,26.6,30.30,NNW,331,0.0,0.0,62,0.00,CLR,,0.00,WeatherDisplay:10.37,2013-03-02 11:32:00,
2013-03-02 05:37:00,38.3,26.4,30.30,NNW,331,0.0,0.0,62,0.00,CLR,,0.00,WeatherDisplay:10.37,2013-03-02 11:37:00,
2013-03-02 05:42:00,38.1,27.0,30.30,NNW,331,0.0,0.0,64,0.00,CLR,,0.00,WeatherDisplay:10.37,2013-03-02 11:42:00,
2013-03-02 05:47:00,37.9,26.8,30.31,NNW,331,0.0,0.0,64,0.00,CLR,,0.00,WeatherDisplay:10.37,2013-03-02 11:47:00,
2013-03-02 05:52:00,37.7,26.2,30.31,NNW,331,0.0,0.0,63,0.00,CLR,,0.00,WeatherDisplay:10.37,2013-03-02 11:52:00,
2013-03-02 05:57:00,37.5,26.8,30.31,NNW,331,0.0,0.0,65,0.00,CLR,,0.00,WeatherDisplay:10.37,2013-03-02 11:57:00,
2013-03-02 06:02:00,37.3,26.2,30.32,NNW,331,0.0,0.0,64,0.00,CLR,,0.00,WeatherDisplay:10.37,2013-03-02 12:02:00,
2013-03-02 06:07:00,37.1,26.8,30.32,NNW,331,0.0,0.0,66,0.00,CLR,,0.00,WeatherDisplay:10.37,2013-03-02 12:07:00,
2013-03-02 06:12:00,37.0,26.3,30.32,NNW,331,0.0,0.0,65,0.00,CLR,,0.00,WeatherDisplay:10.37,2013-03-02 12:12:00,
2013-03-02 06:17:00,36.7,26.0,30.32,NNW,331,0.0,0.0,65,0.00,CLR,,0.00,WeatherDisplay:10.37,2013-03-02 12:17:00,
2013-03-02 06:22:00,36.5,25.8,30.33,NNW,331,0.0,0.0,65,0.00,CLR,,0.00,WeatherDisplay:10.37,2013-03-02 12:22:00,
2013-03-02 06:27:00,36.2,26.3,30.33,NNW,331,0.0,0.0,67,0.00,CLR,,0.00,WeatherDisplay:10.37,2013-03-02 12:27:00,
2013-03-02 06:32:00,36.0,26.1,30.33,NNW,331,0.0,0.0,67,0.00,CLR,,0.00,WeatherDisplay:10.37,2013-03-02 12:32:00,
2013-03-02 06:37:00,35.8,26.3,30.33,NNW,331,0.0,0.0,68,0.00,CLR,,0.00,WeatherDisplay:10.37,2013-03-02 12:37:00,
2013-03-02 06:42:00,35.6,26.1,30.34,NNW,331,0.0,0.0,68,0.00,CLR,,0.00,WeatherDisplay:10.37,2013-03-02 12:42:00,
2013-03-02 06:47:00,35.3,26.5,30.34,NNW,331,0.0,0.0,70,0.00,CLR,,0.00,WeatherDisplay:10.37,2013-03-02 12:47:00,
2013-03-02 06:52:00,35.1,26.6,30.34,NNW,331,0.0,0.0,71,0.00,CLR,,0.00,WeatherDisplay:10.37,2013-03-02 12:52:00,
2013-03-02 06:57:00,35.0,26.5,30.34,NNW,331,0.0,0.0,71,0.00,CLR,,0.00,WeatherDisplay:10.37,2013-03-02 12:57:00,
2013-03-02 07:02:00,34.9,27.1,30.34,NNW,331,0.0,0.0,73,0.00,CLR,,0.00,WeatherDisplay:10.37,2013-03-02 13:02:00,
2013-03-02 07:07:00,34.9,27.5,30.35,NNW,331,0.0,0.0,74,0.00,CLR,,0.00,WeatherDisplay:10.37,2013-03-02 13:07:00,
2013-03-02 07:12:00,35.0,27.5,30.35,NNW,331,0.0,0.0,74,0.00,CLR,,0.00,WeatherDisplay:10.37,2013-03-02 13:12:00,
2013-03-02 07:17:00,35.0,27.5,30.35,NNW,331,0.0,0.0,74,0.00,CLR,,0.00,WeatherDisplay:10.37,2013-03-02 13:17:00,
2013-03-02 07:22:00,35.2,27.7,30.35,NNW,331,0.0,0.0,74,0.00,CLR,,0.00,WeatherDisplay:10.37,2013-03-02 13:22:00,
2013-03-02 07:27:00,35.6,28.1,30.36,NNW,331,0.0,1.2,74,0.00,CLR,,0.00,WeatherDisplay:10.37,2013-03-02 13:27:00,
2013-03-02 07:32:00,36.3,28.8,30.36,NNW,331,0.0,1.2,74,0.00,CLR,,0.00,WeatherDisplay:10.37,2013-03-02 13:32:00,
2013-03-02 07:37:00,37.1,28.9,30.36,NNW,331,0.6,1.2,72,0.00,CLR,,0.00,WeatherDisplay:10.37,2013-03-02 13:37:00,
2013-03-02 07:42:00,37.9,29.0,30.36,NW,310,0.3,3.0,70,0.00,CLR,,0.00,WeatherDisplay:10.37,2013-03-02 13:42:00,
2013-03-02 07:47:00,38.6,29.3,30.37,WNW,301,0.3,3.5,69,0.00,CLR,,0.00,WeatherDisplay:10.37,2013-03-02 13:47:00,
2013-03-02 07:52:00,39.3,29.3,30.37,NNW,339,0.3,2.3,67,0.00,CLR,,0.00,WeatherDisplay:10.37,2013-03-02 13:52:00,
2013-03-02 07:57:00,39.9,29.5,30.37,NW,306,2.5,4.6,66,0.00,CLR,,0.00,WeatherDisplay:10.37,2013-03-02 13:57:00,
2013-03-02 08:02:00,40.6,29.7,30.37,NW,307,0.1,1.2,65,0.00,CLR,,0.00,WeatherDisplay:10.37,2013-03-02 14:02:00,
2013-03-02 08:07:00,41.4,29.7,30.38,NNW,346,2.6,4.6,63,0.00,CLR,,0.00,WeatherDisplay:10.37,2013-03-02 14:07:00,
2013-03-02 08:12:00,41.9,29.8,30.38,NW,326,2.9,4.6,62,0.00,CLR,,0.00,WeatherDisplay:10.37,2013-03-02 14:12:00,
2013-03-02 08:17:00,42.5,30.0,30.38,NNW,347,2.5,4.0,61,0.00,CLR,,0.00,WeatherDisplay:10.37,2013-03-02 14:17:00,
2013-03-02 08:22:00,42.9,30.0,30.38,NW,309,2.2,3.5,60,0.00,CLR,,0.00,WeatherDisplay:10.37,2013-03-02 14:22:00,
2013-03-02 08:27:00,43.3,29.9,30.38,NNW,344,2.5,5.8,59,0.00,CLR,,0.00,WeatherDisplay:10.37,2013-03-02 14:27:00,
2013-03-02 08:32:00,43.6,29.8,30.38,NW,313,0.5,2.3,58,0.00,CLR,,0.00,WeatherDisplay:10.37,2013-03-02 14:32:00,
2013-03-02 08:37:00,43.8,30.0,30.38,WNW,285,1.8,6.0,58,0.00,CLR,,0.00,WeatherDisplay:10.37,2013-03-02 14:37:00,
2013-03-02 08:42:00,44.2,29.9,30.39,WNW,302,0.7,4.6,57,0.00,CLR,,0.00,WeatherDisplay:10.37,2013-03-02 14:42:00,
2013-03-02 08:47:00,44.5,29.8,30.39,North,355,2.5,5.8,56,0.00,CLR,,0.00,WeatherDisplay:10.37,2013-03-02 14:47:00,
2013-03-02 08:52:00,44.8,29.6,30.39,North,5,3.2,4.6,55,0.00,CLR,,0.00,WeatherDisplay:10.37,2013-03-02 14:52:00,
2013-03-02 08:57:00,45.1,29.9,30.39,NW,313,4.5,9.0,55,0.00,CLR,,0.00,WeatherDisplay:10.37,2013-03-02 14:57:00,
2013-03-02 09:02:00,45.4,30.2,30.40,NW,321,3.7,6.9,55,0.00,CLR,,0.00,WeatherDisplay:10.37,2013-03-02 15:02:00,
2013-03-02 09:07:00,45.6,29.9,30.40,North,360,4.3,8.1,54,0.00,CLR,,0.00,WeatherDisplay:10.37,2013-03-02 15:07:00,
2013-03-02 09:12:00,45.9,29.2,30.39,WNW,302,1.9,4.6,52,0.00,CLR,,0.00,WeatherDisplay:10.37,2013-03-02 15:12:00,
2013-03-02 09:17:00,46.0,29.3,30.40,WNW,299,3.0,5.8,52,0.00,CLR,,0.00,WeatherDisplay:10.37,2013-03-02 15:17:00,
2013-03-02 09:22:00,46.3,29.1,30.40,North,360,2.2,9.2,51,0.00,CLR,,0.00,WeatherDisplay:10.37,2013-03-02 15:22:00,
2013-03-02 09:27:00,46.6,28.9,30.39,NW,324,3.9,6.9,50,0.00,CLR,,0.00,WeatherDisplay:10.37,2013-03-02 15:27:00,
2013-03-02 09:32:00,46.9,28.7,30.39,West,269,2.8,8.1,49,0.00,CLR,,0.00,WeatherDisplay:10.37,2013-03-02 15:32:00,
2013-03-02 09:37:00,47.2,28.0,30.39,NW,306,5.1,11.5,47,0.00,CLR,,0.00,WeatherDisplay:10.37,2013-03-02 15:37:00,
2013-03-02 09:42:00,47.4,28.7,30.39,NNW,347,4.5,6.9,48,0.00,CLR,,0.00,WeatherDisplay:10.37,2013-03-02 15:42:00,
2013-03-02 09:47:00,47.8,28.5,30.39,North,355,3.6,6.0,47,0.00,CLR,,0.00,WeatherDisplay:10.37,2013-03-02 15:47:00,
2013-03-02 09:52:00,48.2,27.8,30.39,NNW,345,3.5,6.0,45,0.00,CLR,,0.00,WeatherDisplay:10.37,2013-03-02 15:52:00,
2013-03-02 09:57:00,48.5,27.6,30.39,North,355,4.1,8.1,44,0.00,CLR,,0.00,WeatherDisplay:10.37,2013-03-02 15:57:00,
2013-03-02 10:02:00,48.9,27.4,30.39,WNW,300,3.6,6.0,43,0.00,CLR,,0.00,WeatherDisplay:10.37,2013-03-02 16:02:00,
2013-03-02 10:07:00,49.2,27.1,30.39,WNW,287,3.9,11.5,42,0.00,CLR,,0.00,WeatherDisplay:10.37,2013-03-02 16:07:00,
2013-03-02 10:12:00,49.5,26.7,30.39,NNW,327,3.2,8.1,41,0.00,CLR,,0.00,WeatherDisplay:10.37,2013-03-02 16:12:00,
2013-03-02 10:17:00,49.8,26.4,30.39,NNE,12,4.3,9.2,40,0.00,CLR,,0.00,WeatherDisplay:10.37,2013-03-02 16:17:00,
2013-03-02 10:22:00,50.0,26.0,30.39,WNW,295,3.5,6.0,39,0.00,CLR,,0.00,WeatherDisplay:10.37,2013-03-02 16:22:00,
2013-03-02 10:27:00,50.4,25.7,30.39,West,280,6.4,9.2,38,0.00,CLR,,0.00,WeatherDisplay:10.37,2013-03-02 16:27:00,
2013-03-02 10:32:00,50.6,25.9,30.39,NNW,330,5.0,6.9,38,0.00,CLR,,0.00,WeatherDisplay:10.37,2013-03-02 16:32:00,
2013-03-02 10:37:00,50.8,26.1,30.39,NNW,331,3.8,5.8,38,0.00,CLR,,0.00,WeatherDisplay:10.37,2013-03-02 16:37:00,
2013-03-02 10:42:00,51.0,25.0,30.39,North,11,4.6,8.1,36,0.00,CLR,,0.00,WeatherDisplay:10.37,2013-03-02 16:42:00,
2013-03-02 10:47:00,51.3,25.2,30.39,WNW,300,4.9,11.5,36,0.00,CLR,,0.00,WeatherDisplay:10.37,2013-03-02 16:47:00,
2013-03-02 10:52:00,51.5,24.7,30.39,West,269,3.9,5.8,35,0.00,CLR,,0.00,WeatherDisplay:10.37,2013-03-02 16:52:00,
2013-03-02 10:57:00,51.7,24.2,30.39,NNW,341,4.0,8.1,34,0.00,CLR,,0.00,WeatherDisplay:10.37,2013-03-02 16:57:00,
2013-03-02 11:02:00,52.0,24.5,30.39,NNW,333,4.5,8.1,34,0.00,CLR,,0.00,WeatherDisplay:10.37,2013-03-02 17:02:00,
2013-03-02 11:07:00,52.2,24.6,30.38,WNW,296,2.6,8.0,34,0.00,CLR,,0.00,WeatherDisplay:10.37,2013-03-02 17:07:00,
2013-03-02 11:12:00,52.7,25.8,30.38,WNW,293,4.6,8.1,35,0.00,CLR,,0.00,WeatherDisplay:10.37,2013-03-02 17:12:00,
2013-03-02 11:17:00,53.1,24.7,30.38,NNW,342,4.6,8.1,33,0.00,CLR,,0.00,WeatherDisplay:10.37,2013-03-02 17:17:00,
2013-03-02 11:22:00,53.4,25.7,30.38,NW,312,3.7,6.9,34,0.00,CLR,,0.00,WeatherDisplay:10.37,2013-03-02 17:22:00,
2013-03-02 11:27:00,53.9,26.1,30.38,NE,36,3.3,5.8,34,0.00,CLR,,0.00,WeatherDisplay:10.37,2013-03-02 17:27:00,
2013-03-02 11:32:00,54.1,26.3,30.38,North,355,4.2,5.8,34,0.00,CLR,,0.00,WeatherDisplay:10.37,2013-03-02 17:32:00,
2013-03-02 11:37:00,54.3,26.5,30.38,West,277,4.1,10.4,34,0.00,CLR,,0.00,WeatherDisplay:10.37,2013-03-02 17:37:00,
2013-03-02 11:42:00,54.4,25.1,30.38,North,355,2.9,5.8,32,0.00,CLR,,0.00,WeatherDisplay:10.37,2013-03-02 17:42:00,
2013-03-02 11:47:00,54.7,26.1,30.38,North,350,5.4,8.1,33,0.00,CLR,,0.00,WeatherDisplay:10.37,2013-03-02 17:47:00,
2013-03-02 11:52:00,54.8,25.5,30.37,NW,319,6.9,11.5,32,0.00,CLR,,0.00,WeatherDisplay:10.37,2013-03-02 17:52:00,
2013-03-02 11:57:00,54.9,25.6,30.37,WNW,284,5.3,8.0,32,0.00,CLR,,0.00,WeatherDisplay:10.37,2013-03-02 17:57:00,
2013-03-02 12:02:00,55.2,25.1,30.37,NW,314,4.4,8.1,31,0.00,CLR,,0.00,WeatherDisplay:10.37,2013-03-02 18:02:00,
2013-03-02 12:07:00,55.2,25.1,30.37,NW,325,4.9,7.0,31,0.00,CLR,,0.00,WeatherDisplay:10.37,2013-03-02 18:07:00,
2013-03-02 12:12:00,55.4,26.0,30.36,West,272,3.9,5.8,32,0.00,CLR,,0.00,WeatherDisplay:10.37,2013-03-02 18:12:00,
2013-03-02 12:17:00,55.9,25.7,30.36,NW,309,4.2,6.9,31,0.00,CLR,,0.00,WeatherDisplay:10.37,2013-03-02 18:17:00,
2013-03-02 12:22:00,56.3,25.2,30.35,NW,321,4.0,5.8,30,0.00,CLR,,0.00,WeatherDisplay:10.37,2013-03-02 18:22:00,
2013-03-02 12:27:00,56.6,26.3,30.35,NNW,346,4.6,8.1,31,0.00,CLR,,0.00,WeatherDisplay:10.37,2013-03-02 18:27:00,
2013-03-02 12:32:00,57.3,26.1,30.35,West,274,4.0,6.0,30,0.00,CLR,,0.00,WeatherDisplay:10.37,2013-03-02 18:32:00,
2013-03-02 12:37:00,57.8,26.5,30.34,NNW,338,1.8,5.0,30,0.00,CLR,,0.00,WeatherDisplay:10.37,2013-03-02 18:37:00,
2013-03-02 12:42:00,58.1,26.0,30.34,WNW,302,4.3,5.8,29,0.00,CLR,,0.00,WeatherDisplay:10.37,2013-03-02 18:42:00,
2013-03-02 12:47:00,58.2,26.1,30.34,WNW,287,6.0,8.1,29,0.00,CLR,,0.00,WeatherDisplay:10.37,2013-03-02 18:47:00,
2013-03-02 12:52:00,58.7,25.6,30.33,NW,324,4.6,9.0,28,0.00,CLR,,0.00,WeatherDisplay:10.37,2013-03-02 18:52:00,
2013-03-02 12:57:00,58.9,25.8,30.33,NNW,340,5.3,8.0,28,0.00,CLR,,0.00,WeatherDisplay:10.37,2013-03-02 18:57:00,
2013-03-02 13:02:00,58.6,26.4,30.33,WNW,296,0.3,5.0,29,0.00,CLR,,0.00,WeatherDisplay:10.37,2013-03-02 19:02:00,
2013-03-02 13:07:00,59.0,25.9,30.33,WNW,301,8.4,15.0,28,0.00,CLR,,0.00,WeatherDisplay:10.37,2013-03-02 19:07:00,
2013-03-02 13:12:00,59.2,26.1,30.32,NE,46,3.0,6.9,28,0.00,CLR,,0.00,WeatherDisplay:10.37,2013-03-02 19:12:00,
2013-03-02 13:17:00,59.7,25.6,30.32,NNW,330,6.1,9.2,27,0.00,CLR,,0.00,WeatherDisplay:10.37,2013-03-02 19:17:00,
2013-03-02 13:23:00,59.5,25.5,30.31,WNW,290,6.7,16.1,27,0.00,CLR,,0.00,WeatherDisplay:10.37,2013-03-02 19:23:00,
2013-03-02 13:28:00,59.9,26.7,30.30,WNW,295,1.0,4.6,28,0.00,CLR,,0.00,WeatherDisplay:10.37,2013-03-02 19:28:00,
2013-03-02 13:33:00,60.3,26.1,30.30,NW,321,2.5,4.6,27,0.00,CLR,,0.00,WeatherDisplay:10.37,2013-03-02 19:33:00,
2013-03-02 13:38:00,60.6,25.5,30.30,NW,319,5.0,8.1,26,0.00,CLR,,0.00,WeatherDisplay:10.37,2013-03-02 19:38:00,
2013-03-02 13:43:00,60.4,26.2,30.30,NNW,338,6.4,9.2,27,0.00,CLR,,0.00,WeatherDisplay:10.37,2013-03-02 19:43:00,
2013-03-02 13:48:00,60.8,25.7,30.29,NNW,334,6.9,9.0,26,0.00,CLR,,0.00,WeatherDisplay:10.37,2013-03-02 19:48:00,
2013-03-02 13:53:00,61.1,25.9,30.29,NNW,336,2.7,8.1,26,0.00,CLR,,0.00,WeatherDisplay:10.37,2013-03-02 19:53:00,
2013-03-02 13:58:00,61.1,25.9,30.29,NW,304,7.1,16.1,26,0.00,CLR,,0.00,WeatherDisplay:10.37,2013-03-02 19:58:00,
2013-03-02 14:03:00,61.0,25.8,30.28,WNW,298,4.4,6.9,26,0.00,CLR,,0.00,WeatherDisplay:10.37,2013-03-02 20:03:00,
2013-03-02 14:08:00,61.3,25.1,30.28,NW,308,7.8,10.4,25,0.00,CLR,,0.00,WeatherDisplay:10.37,2013-03-02 20:08:00,
2013-03-02 14:13:00,61.2,26.0,30.28,NW,311,5.5,8.0,26,0.00,CLR,,0.00,WeatherDisplay:10.37,2013-03-02 20:13:00,
2013-03-02 14:18:00,61.4,26.2,30.28,WNW,295,7.4,13.8,26,0.00,CLR,,0.00,WeatherDisplay:10.37,2013-03-02 20:18:00,
2013-03-02 14:23:00,61.9,26.6,30.28,WNW,293,5.2,7.0,26,0.00,CLR,,0.00,WeatherDisplay:10.37,2013-03-02 20:23:00,
2013-03-02 14:28:00,62.3,26.9,30.28,NNE,16,4.1,6.9,26,0.00,CLR,,0.00,WeatherDisplay:10.37,2013-03-02 20:28:00,
2013-03-02 14:33:00,62.6,26.2,30.28,NNW,335,4.9,6.9,25,0.00,CLR,,0.00,WeatherDisplay:10.37,2013-03-02 20:33:00,
2013-03-02 14:38:00,62.4,26.1,30.27,WNW,301,3.5,6.9,25,0.00,CLR,,0.00,WeatherDisplay:10.37,2013-03-02 20:38:00,
2013-03-02 14:43:00,62.5,27.1,30.27,NNW,346,3.3,5.8,26,0.00,CLR,,0.00,WeatherDisplay:10.37,2013-03-02 20:43:00,
2013-03-02 14:48:00,63.0,26.6,30.27,NW,325,4.5,10.4,25,0.00,CLR,,0.00,WeatherDisplay:10.37,2013-03-02 20:48:00,
2013-03-02 14:53:00,63.3,26.8,30.27,West,271,4.6,8.1,25,0.00,CLR,,0.00,WeatherDisplay:10.37,2013-03-02 20:53:00,
2013-03-02 14:58:00,63.6,27.1,30.27,West,263,2.9,5.8,25,0.00,CLR,,0.00,WeatherDisplay:10.37,2013-03-02 20:58:00,
2013-03-02 15:03:00,63.9,27.4,30.26,NW,315,2.4,8.1,25,0.00,CLR,,0.00,WeatherDisplay:10.37,2013-03-02 21:03:00,
2013-03-02 15:08:00,63.8,26.3,30.26,NW,324,2.7,6.9,24,0.00,CLR,,0.00,WeatherDisplay:10.37,2013-03-02 21:08:00,
2013-03-02 15:13:00,64.0,26.4,30.26,West,263,4.9,8.1,24,0.00,CLR,,0.00,WeatherDisplay:10.37,2013-03-02 21:13:00,
2013-03-02 15:18:00,64.1,26.5,30.26,WNW,298,5.0,10.4,24,0.00,CLR,,0.00,WeatherDisplay:10.37,2013-03-02 21:18:00,
2013-03-02 15:23:00,63.9,27.4,30.26,NW,310,4.6,8.1,25,0.00,CLR,,0.00,WeatherDisplay:10.37,2013-03-02 21:23:00,
2013-03-02 15:28:00,63.8,27.3,30.26,NW,306,3.8,8.1,25,0.00,CLR,,0.00,WeatherDisplay:10.37,2013-03-02 21:28:00,
2013-03-02 15:33:00,64.1,27.5,30.25,North,360,0.8,4.6,25,0.00,CLR,,0.00,WeatherDisplay:10.37,2013-03-02 21:33:00,
2013-03-02 15:38:00,64.3,27.7,30.25,NNW,348,2.1,3.5,25,0.00,CLR,,0.00,WeatherDisplay:10.37,2013-03-02 21:38:00,
2013-03-02 15:43:00,64.3,27.7,30.25,WNW,283,5.8,9.2,25,0.00,CLR,,0.00,WeatherDisplay:10.37,2013-03-02 21:43:00,
2013-03-02 15:48:00,64.5,27.9,30.25,SW,227,2.9,6.0,25,0.00,CLR,,0.00,WeatherDisplay:10.37,2013-03-02 21:48:00,
2013-03-02 15:53:00,64.8,28.1,30.24,NNE,16,3.6,5.8,25,0.00,CLR,,0.00,WeatherDisplay:10.37,2013-03-02 21:53:00,
2013-03-02 15:58:00,64.6,27.9,30.24,NW,304,3.9,5.8,25,0.00,CLR,,0.00,WeatherDisplay:10.37,2013-03-02 21:58:00,
2013-03-02 16:03:00,64.6,27.9,30.24,NW,324,5.2,9.2,25,0.00,CLR,,0.00,WeatherDisplay:10.37,2013-03-02 22:03:00,
2013-03-02 16:08:00,64.6,27.9,30.24,WNW,295,1.7,5.0,25,0.00,CLR,,0.00,WeatherDisplay:10.37,2013-03-02 22:08:00,
2013-03-02 16:13:00,64.8,28.1,30.24,WNW,290,2.4,4.0,25,0.00,CLR,,0.00,WeatherDisplay:10.37,2013-03-02 22:13:00,
2013-03-02 16:18:00,65.0,29.2,30.23,NNW,347,2.8,3.5,26,0.00,CLR,,0.00,WeatherDisplay:10.37,2013-03-02 22:18:00,
2013-03-02 16:23:00,65.1,28.4,30.23,North,360,2.2,3.5,25,0.00,CLR,,0.00,WeatherDisplay:10.37,2013-03-02 22:23:00,
2013-03-02 16:28:00,65.1,28.4,30.23,NW,308,2.7,6.9,25,0.00,CLR,,0.00,WeatherDisplay:10.37,2013-03-02 22:28:00,
2013-03-02 16:33:00,64.9,28.2,30.23,NW,311,1.3,6.0,25,0.00,CLR,,0.00,WeatherDisplay:10.37,2013-03-02 22:33:00,
2013-03-02 16:38:00,64.8,29.1,30.23,WNW,290,4.3,7.0,26,0.00,CLR,,0.00,WeatherDisplay:10.37,2013-03-02 22:38:00,
2013-03-02 16:43:00,64.6,28.9,30.23,NW,321,1.1,3.5,26,0.00,CLR,,0.00,WeatherDisplay:10.37,2013-03-02 22:43:00,
2013-03-02 16:48:00,64.3,28.7,30.23,NW,316,4.1,6.9,26,0.00,CLR,,0.00,WeatherDisplay:10.37,2013-03-02 22:48:00,
2013-03-02 16:53:00,63.9,28.3,30.23,North,350,0.6,3.5,26,0.00,CLR,,0.00,WeatherDisplay:10.37,2013-03-02 22:53:00,
2013-03-02 16:58:00,63.8,28.2,30.23,North,355,2.5,5.8,26,0.00,CLR,,0.00,WeatherDisplay:10.37,2013-03-02 22:58:00,
2013-03-02 17:03:00,63.6,28.1,30.23,NW,323,4.5,5.8,26,0.00,CLR,,0.00,WeatherDisplay:10.37,2013-03-02 23:03:00,
2013-03-02 17:08:00,63.3,28.7,30.23,WNW,303,1.5,4.6,27,0.00,CLR,,0.00,WeatherDisplay:10.37,2013-03-02 23:08:00,
2013-03-02 17:13:00,63.1,28.5,30.23,NW,323,1.4,4.6,27,0.00,CLR,,0.00,WeatherDisplay:10.37,2013-03-02 23:13:00,
2013-03-02 17:18:00,63.1,28.5,30.23,North,9,2.7,4.6,27,0.00,CLR,,0.00,WeatherDisplay:10.37,2013-03-02 23:18:00,
2013-03-02 17:23:00,63.0,28.5,30.23,NNW,343,1.7,3.5,27,0.00,CLR,,0.00,WeatherDisplay:10.37,2013-03-02 23:23:00,
2013-03-02 17:28:00,62.9,28.4,30.23,NNW,336,0.6,2.3,27,0.00,CLR,,0.00,WeatherDisplay:10.37,2013-03-02 23:28:00,
2013-03-02 17:33:00,62.8,28.3,30.23,NW,311,1.2,3.5,27,0.00,CLR,,0.00,WeatherDisplay:10.37,2013-03-02 23:33:00,
2013-03-02 17:38:00,62.7,28.2,30.23,NW,311,3.2,4.6,27,0.00,CLR,,0.00,WeatherDisplay:10.37,2013-03-02 23:38:00,
2013-03-02 17:43:00,62.7,29.1,30.23,NNW,346,1.6,3.5,28,0.00,CLR,,0.00,WeatherDisplay:10.37,2013-03-02 23:43:00,
2013-03-02 17:48:00,62.6,29.0,30.23,NNW,342,0.9,2.3,28,0.00,CLR,,0.00,WeatherDisplay:10.37,2013-03-02 23:48:00,
2013-03-02 17:53:00,62.6,29.0,30.23,North,350,3.8,5.0,28,0.00,CLR,,0.00,WeatherDisplay:10.37,2013-03-02 23:53:00,
2013-03-02 17:58:00,62.4,28.8,30.23,WNW,286,0.3,1.2,28,0.00,CLR,,0.00,WeatherDisplay:10.37,2013-03-02 23:58:00,
2013-03-02 18:03:00,62.3,29.6,30.23,WNW,288,0.1,1.2,29,0.00,CLR,,0.00,WeatherDisplay:10.37,2013-03-03 00:03:00,
2013-03-02 18:08:00,62.1,29.4,30.23,WNW,288,0.0,0.0,29,0.00,CLR,,0.00,WeatherDisplay:10.37,2013-03-03 00:08:00,
2013-03-02 18:13:00,61.9,29.3,30.23,WNW,288,0.1,1.2,29,0.00,CLR,,0.00,WeatherDisplay:10.37,2013-03-03 00:13:00,
2013-03-02 18:18:00,61.7,29.1,30.23,WNW,288,0.0,0.0,29,0.00,CLR,,0.00,WeatherDisplay:10.37,2013-03-03 00:18:00,
2013-03-02 18:23:00,61.5,28.9,30.23,WNW,288,0.0,0.0,29,0.00,CLR,,0.00,WeatherDisplay:10.37,2013-03-03 00:23:00,
2013-03-02 18:28:00,61.4,29.7,30.23,WNW,288,0.0,0.0,30,0.00,CLR,,0.00,WeatherDisplay:10.37,2013-03-03 00:28:00,
2013-03-02 18:33:00,61.1,30.2,30.23,WNW,288,0.0,0.0,31,0.00,CLR,,0.00,WeatherDisplay:10.37,2013-03-03 00:33:00,
2013-03-02 18:38:00,60.8,29.9,30.23,WNW,288,0.0,0.0,31,0.00,CLR,,0.00,WeatherDisplay:10.37,2013-03-03 00:38:00,
2013-03-02 18:43:00,60.2,30.2,30.23,WNW,288,0.0,0.0,32,0.00,CLR,,0.00,WeatherDisplay:10.37,2013-03-03 00:43:00,
2013-03-02 18:48:00,59.8,30.6,30.23,WNW,288,0.0,0.0,33,0.00,CLR,,0.00,WeatherDisplay:10.37,2013-03-03 00:48:00,
2013-03-02 18:53:00,59.4,30.3,30.23,WNW,288,0.0,0.0,33,0.00,CLR,,0.00,WeatherDisplay:10.37,2013-03-03 00:53:00,
2013-03-02 18:58:00,58.8,29.7,30.23,WNW,288,0.0,0.0,33,0.00,CLR,,0.00,WeatherDisplay:10.37,2013-03-03 00:58:00,
2013-03-02 19:03:00,58.1,29.8,30.23,WNW,288,0.0,0.0,34,0.00,CLR,,0.00,WeatherDisplay:10.37,2013-03-03 01:03:00,
2013-03-02 19:08:00,57.0,30.3,30.23,WNW,288,0.0,0.0,36,0.00,CLR,,0.00,WeatherDisplay:10.37,2013-03-03 01:08:00,
2013-03-02 19:13:00,55.9,30.6,30.23,WNW,288,0.0,0.0,38,0.00,CLR,,0.00,WeatherDisplay:10.37,2013-03-03 01:13:00,
2013-03-02 19:18:00,54.9,30.4,30.23,WNW,288,0.0,0.0,39,0.00,CLR,,0.00,WeatherDisplay:10.37,2013-03-03 01:18:00,
2013-03-02 19:23:00,54.0,29.6,30.23,WNW,288,0.0,0.0,39,0.00,CLR,,0.00,WeatherDisplay:10.37,2013-03-03 01:23:00,
2013-03-02 19:28:00,53.0,29.9,30.23,WNW,288,0.0,0.0,41,0.00,CLR,,0.00,WeatherDisplay:10.37,2013-03-03 01:28:00,
2013-03-02 19:33:00,52.1,29.7,30.23,WNW,288,0.0,0.0,42,0.00,CLR,,0.00,WeatherDisplay:10.37,2013-03-03 01:33:00,
2013-03-02 19:38:00,51.4,29.6,30.23,WNW,288,0.0,0.0,43,0.00,CLR,,0.00,WeatherDisplay:10.37,2013-03-03 01:38:00,
2013-03-02 19:43:00,50.8,29.1,30.23,WNW,288,0.0,0.0,43,0.00,CLR,,0.00,WeatherDisplay:10.37,2013-03-03 01:43:00,
2013-03-02 19:48:00,50.6,28.9,30.23,WNW,288,0.0,0.0,43,0.00,CLR,,0.00,WeatherDisplay:10.37,2013-03-03 01:48:00,
2013-03-02 19:53:00,50.3,28.6,30.23,WNW,288,0.0,0.0,43,0.00,CLR,,0.00,WeatherDisplay:10.37,2013-03-03 01:53:00,
2013-03-02 19:58:00,49.9,28.8,30.23,WNW,288,0.0,0.0,44,0.00,CLR,,0.00,WeatherDisplay:10.37,2013-03-03 01:58:00,
2013-03-02 20:03:00,49.4,29.5,30.24,WNW,288,0.0,0.0,46,0.00,CLR,,0.00,WeatherDisplay:10.37,2013-03-03 02:03:00,
2013-03-02 20:08:00,48.9,29.0,30.24,WNW,288,0.0,0.0,46,0.00,CLR,,0.00,WeatherDisplay:10.37,2013-03-03 02:08:00,
2013-03-02 20:13:00,48.5,29.2,30.24,WNW,288,0.0,0.0,47,0.00,CLR,,0.00,WeatherDisplay:10.37,2013-03-03 02:13:00,
2013-03-02 20:18:00,48.1,29.3,30.24,WNW,288,0.0,0.0,48,0.00,CLR,,0.00,WeatherDisplay:10.37,2013-03-03 02:18:00,
2013-03-02 20:23:00,47.7,29.5,30.24,WNW,288,0.0,0.0,49,0.00,CLR,,0.00,WeatherDisplay:10.37,2013-03-03 02:23:00,
2013-03-02 20:28:00,47.2,29.5,30.24,WNW,288,0.0,0.0,50,0.00,CLR,,0.00,WeatherDisplay:10.37,2013-03-03 02:28:00,
2013-03-02 20:33:00,46.9,28.7,30.24,WNW,288,0.0,0.0,49,0.00,CLR,,0.00,WeatherDisplay:10.37,2013-03-03 02:33:00,
2013-03-02 20:38:00,46.7,29.0,30.24,WNW,288,0.0,0.0,50,0.00,CLR,,0.00,WeatherDisplay:10.37,2013-03-03 02:38:00,
2013-03-02 20:43:00,46.5,28.8,30.25,WNW,288,0.0,0.0,50,0.00,CLR,,0.00,WeatherDisplay:10.37,2013-03-03 02:43:00,
2013-03-02 20:48:00,46.1,29.0,30.24,WNW,288,0.0,0.0,51,0.00,CLR,,0.00,WeatherDisplay:10.37,2013-03-03 02:48:00,
2013-03-02 20:53:00,45.8,28.7,30.25,WNW,288,0.0,0.0,51,0.00,CLR,,0.00,WeatherDisplay:10.37,2013-03-03 02:53:00,
2013-03-02 20:58:00,45.5,28.4,30.25,WNW,288,0.0,0.0,51,0.00,CLR,,0.00,WeatherDisplay:10.37,2013-03-03 02:58:00,
2013-03-02 21:03:00,45.2,28.6,30.25,WNW,288,0.0,0.0,52,0.00,CLR,,0.00,WeatherDisplay:10.37,2013-03-03 03:03:00,
2013-03-02 21:08:00,45.0,28.9,30.24,WNW,288,0.0,0.0,53,0.00,CLR,,0.00,WeatherDisplay:10.37,2013-03-03 03:08:00,
2013-03-02 21:13:00,44.6,29.0,30.25,WNW,288,0.0,0.0,54,0.00,CLR,,0.00,WeatherDisplay:10.37,2013-03-03 03:13:00,
2013-03-02 21:18:00,44.2,28.6,30.25,WNW,288,0.0,0.0,54,0.00,CLR,,0.00,WeatherDisplay:10.37,2013-03-03 03:18:00,
2013-03-02 21:23:00,43.9,28.3,30.25,WNW,288,0.0,0.0,54,0.00,CLR,,0.00,WeatherDisplay:10.37,2013-03-03 03:23:00,
2013-03-02 21:28:00,43.7,28.1,30.25,WNW,288,0.0,0.0,54,0.00,CLR,,0.00,WeatherDisplay:10.37,2013-03-03 03:28:00,
2013-03-02 21:33:00,43.6,28.5,30.25,WNW,288,0.0,0.0,55,0.00,CLR,,0.00,WeatherDisplay:10.37,2013-03-03 03:33:00,
2013-03-02 21:38:00,43.3,28.2,30.25,WNW,288,0.0,0.0,55,0.00,CLR,,0.00,WeatherDisplay:10.37,2013-03-03 03:38:00,
2013-03-02 21:43:00,43.1,28.5,30.25,WNW,288,0.0,0.0,56,0.00,CLR,,0.00,WeatherDisplay:10.37,2013-03-03 03:43:00,
2013-03-02 21:48:00,42.8,28.6,30.25,WNW,288,0.0,0.0,57,0.00,CLR,,0.00,WeatherDisplay:10.37,2013-03-03 03:48:00,
2013-03-02 21:53:00,42.6,28.4,30.25,WNW,288,0.0,0.0,57,0.00,CLR,,0.00,WeatherDisplay:10.37,2013-03-03 03:53:00,
2013-03-02 21:58:00,42.3,28.1,30.25,WNW,288,0.0,0.0,57,0.00,CLR,,0.00,WeatherDisplay:10.37,2013-03-03 03:58:00,
2013-03-02 22:03:00,42.1,28.4,30.25,WNW,288,0.0,0.0,58,0.00,CLR,,0.00,WeatherDisplay:10.37,2013-03-03 04:03:00,
2013-03-02 22:08:00,41.8,28.1,30.25,WNW,288,0.0,0.0,58,0.00,CLR,,0.00,WeatherDisplay:10.37,2013-03-03 04:08:00,
2013-03-02 22:13:00,41.6,28.3,30.25,WNW,288,0.0,0.0,59,0.00,CLR,,0.00,WeatherDisplay:10.37,2013-03-03 04:13:00,
2013-03-02 22:18:00,41.4,28.1,30.25,WNW,288,0.0,0.0,59,0.00,CLR,,0.00,WeatherDisplay:10.37,2013-03-03 04:18:00,
2013-03-02 22:23:00,41.1,28.3,30.25,WNW,288,0.0,0.0,60,0.00,CLR,,0.00,WeatherDisplay:10.37,2013-03-03 04:23:00,
2013-03-02 22:28:00,41.0,28.2,30.25,WNW,288,0.0,0.0,60,0.00,CLR,,0.00,WeatherDisplay:10.37,2013-03-03 04:28:00,
2013-03-02 22:33:00,40.9,28.1,30.25,WNW,288,0.0,0.0,60,0.00,CLR,,0.00,WeatherDisplay:10.37,2013-03-03 04:33:00,
2013-03-02 22:38:00,40.7,27.9,30.25,WNW,288,0.0,0.0,60,0.00,CLR,,0.00,WeatherDisplay:10.37,2013-03-03 04:38:00,
2013-03-02 22:43:00,40.6,28.2,30.25,WNW,288,0.0,0.0,61,0.00,CLR,,0.00,WeatherDisplay:10.37,2013-03-03 04:43:00,
2013-03-02 22:48:00,40.4,28.0,30.25,WNW,288,0.0,0.0,61,0.00,CLR,,0.00,WeatherDisplay:10.37,2013-03-03 04:48:00,
2013-03-02 22:53:00,40.3,27.9,30.25,WNW,288,0.0,0.0,61,0.00,CLR,,0.00,WeatherDisplay:10.37,2013-03-03 04:53:00,
2013-03-02 22:58:00,40.2,28.2,30.25,WNW,288,0.0,0.0,62,0.00,CLR,,0.00,WeatherDisplay:10.37,2013-03-03 04:58:00,
2013-03-02 23:00:00,40.1,28.1,30.25,WNW,288,0.0,0.0,62,0.00,CLR,,0.00,WeatherDisplay:10.37,2013-03-03 05:00:00,
2013-03-02 23:05:00,40.0,28.0,30.25,WNW,288,0.0,0.0,62,0.00,CLR,,0.00,WeatherDisplay:10.37,2013-03-03 05:05:00,
2013-03-02 23:10:00,39.9,27.9,30.25,WNW,288,0.0,0.0,62,0.00,CLR,,0.00,WeatherDisplay:10.37,2013-03-03 05:10:00,
2013-03-02 23:15:00,39.7,27.7,30.25,WNW,288,0.0,0.0,62,0.00,CLR,,0.00,WeatherDisplay:10.37,2013-03-03 05:15:00,
2013-03-02 23:20:00,39.5,27.9,30.25,WNW,288,0.1,1.2,63,0.00,CLR,,0.00,WeatherDisplay:10.37,2013-03-03 05:20:00,
2013-03-02 23:25:00,39.3,27.7,30.25,WNW,288,0.0,0.0,63,0.00,CLR,,0.00,WeatherDisplay:10.37,2013-03-03 05:25:00,
2013-03-02 23:30:00,39.3,27.7,30.25,WNW,288,0.0,0.0,63,0.00,CLR,,0.00,WeatherDisplay:10.37,2013-03-03 05:30:00,
2013-03-02 23:35:00,39.3,28.1,30.25,WNW,288,0.0,0.0,64,0.00,CLR,,0.00,WeatherDisplay:10.37,2013-03-03 05:35:00,
2013-03-02 23:40:00,39.2,28.0,30.25,WNW,288,0.0,0.0,64,0.00,CLR,,0.00,WeatherDisplay:10.37,2013-03-03 05:40:00,
2013-03-02 23:45:00,39.1,28.3,30.25,WNW,288,0.0,0.0,65,0.00,CLR,,0.00,WeatherDisplay:10.37,2013-03-03 05:45:00,
2013-03-02 23:50:00,38.9,28.5,30.25,WNW,288,0.0,0.0,66,0.00,CLR,,0.00,WeatherDisplay:10.37,2013-03-03 05:50:00,
2013-03-02 23:55:00,38.7,28.3,30.25,WNW,288,0.0,0.0,66,0.00,CLR,,0.00,WeatherDisplay:10.37,2013-03-03 05:55:00,